TimeCST,TemperatureF,Dew PointF,Humidity,Sea Level PressureIn,VisibilityMPH,Wind Direction,Wind SpeedMPH,Gust SpeedMPH,PrecipitationIn,Events,Conditions,WindDirDegrees,DateUTC
12:08 AM,30.2,30.2,100,29.61,0.8,East,4.6,-,N/A,,Overcast,100,2013-01-29 06:08:00
12:28 AM,30.2,30.2,100,29.59,0.8,East,4.6,-,N/A,,Overcast,90,2013-01-29 06:28:00
12:49 AM,30.2,30.2,100,29.57,0.8,ENE,4.6,-,N/A,,Overcast,60,2013-01-29 06:49:00
1:08 AM,30.2,30.2,100,29.57,0.8,East,3.5,-,N/A,,Overcast,80,2013-01-29 07:08:00
1:28 AM,30.2,30.2,100,29.55,0.5,East,3.5,-,N/A,,Overcast,80,2013-01-29 07:28:00
1:48 AM,30.2,30.2,100,29.55,0.2,ENE,3.5,-,N/A,Fog,Light Freezing Fog,70,2013-01-29 07:48:00
2:08 AM,30.2,30.2,100,29.54,0.5,Calm,Calm,-,N/A,Fog,Light Freezing Fog,0,2013-01-29 08:08:00
2:29 AM,30.2,30.2,100,29.53,0.8,Calm,Calm,-,N/A,,Overcast,0,2013-01-29 08:29:00
2:48 AM,30.2,30.2,100,29.54,0.8,Calm,Calm,-,N/A,,Overcast,0,2013-01-29 08:48:00
3:08 AM,30.2,30.2,100,29.54,0.8,NNW,3.5,-,N/A,,Overcast,340,2013-01-29 09:08:00
3:28 AM,30.2,30.2,100,29.55,0.5,NW,5.8,-,N/A,Fog,Light Freezing Fog,310,2013-01-29 09:28:00
4:08 AM,30.2,30.2,100,29.54,0.5,WNW,3.5,-,N/A,Fog,Light Freezing Fog,300,2013-01-29 10:08:00
4:28 AM,30.2,30.2,100,29.52,0.8,NNW,3.5,-,N/A,,Overcast,330,2013-01-29 10:28:00
4:48 AM,30.2,30.2,100,29.53,1.0,WNW,5.8,-,N/A,,Overcast,300,2013-01-29 10:48:00
5:08 AM,30.2,30.2,100,29.53,1.0,NW,4.6,-,N/A,,Overcast,310,2013-01-29 11:08:00
5:28 AM,30.2,30.2,100,29.53,0.8,NW,8.1,-,N/A,,Overcast,310,2013-01-29 11:28:00
5:48 AM,30.2,30.2,100,29.52,0.8,NW,5.8,-,N/A,,Overcast,320,2013-01-29 11:48:00
6:09 AM,30.2,30.2,100,29.53,1.2,NW,5.8,-,N/A,,Overcast,320,2013-01-29 12:09:00
6:28 AM,30.2,30.2,100,29.53,1.2,NW,6.9,-,N/A,,Overcast,310,2013-01-29 12:28:00
6:48 AM,30.2,30.2,100,29.55,2.0,WNW,5.8,-,N/A,,Overcast,290,2013-01-29 12:48:00
7:08 AM,30.2,30.2,100,29.55,2.5,WNW,5.8,-,N/A,,Overcast,300,2013-01-29 13:08:00
7:28 AM,30.2,30.2,100,29.54,3.0,Calm,Calm,-,N/A,,Overcast,0,2013-01-29 13:28:00
7:48 AM,30.2,30.2,100,29.56,4.0,WNW,5.8,-,N/A,,Overcast,290,2013-01-29 13:48:00
8:08 AM,30.2,30.2,100,29.57,3.0,West,9.2,-,N/A,,Overcast,280,2013-01-29 14:08:00
8:28 AM,30.2,30.2,100,29.56,3.0,WNW,12.7,-,N/A,,Overcast,290,2013-01-29 14:28:00
8:48 AM,30.2,30.2,100,29.59,4.0,WNW,11.5,-,N/A,,Overcast,290,2013-01-29 14:48:00
9:08 AM,30.2,30.2,100,29.59,4.0,WNW,11.5,-,N/A,,Overcast,290,2013-01-29 15:08:00
9:28 AM,30.2,30.2,100,29.58,4.0,WNW,11.5,-,N/A,,Overcast,300,2013-01-29 15:28:00
9:48 AM,30.2,30.2,100,29.60,5.0,WNW,9.2,-,N/A,,Overcast,290,2013-01-29 15:48:00
10:08 AM,30.2,30.2,100,29.60,4.0,NW,10.4,-,N/A,,Overcast,310,2013-01-29 16:08:00
10:28 AM,30.2,30.2,100,29.61,5.0,NW,11.5,-,N/A,,Overcast,310,2013-01-29 16:28:00
10:48 AM,32.0,30.2,93,29.61,7.0,NNW,11.5,-,N/A,,Overcast,330,2013-01-29 16:48:00
11:08 AM,32.0,30.2,93,29.63,10.0,NW,11.5,-,N/A,,Overcast,320,2013-01-29 17:08:00
11:28 AM,32.0,28.4,87,29.66,10.0,NNW,9.2,-,N/A,,Overcast,330,2013-01-29 17:28:00
11:49 AM,33.8,30.2,87,29.64,10.0,NW,10.4,-,N/A,,Overcast,320,2013-01-29 17:49:00
12:08 PM,33.8,30.2,87,29.65,10.0,NW,8.1,-,N/A,,Overcast,320,2013-01-29 18:08:00
12:28 PM,33.8,30.2,87,29.62,10.0,NW,10.4,-,N/A,,Overcast,320,2013-01-29 18:28:00
12:49 PM,33.8,30.2,87,29.63,10.0,NW,8.1,-,N/A,,Overcast,320,2013-01-29 18:49:00
1:08 PM,33.8,30.2,87,29.62,10.0,NW,9.2,-,N/A,,Overcast,320,2013-01-29 19:08:00
1:28 PM,33.8,30.2,87,29.61,10.0,NW,9.2,-,N/A,,Overcast,320,2013-01-29 19:28:00
1:49 PM,33.8,28.4,81,29.60,10.0,NW,9.2,-,N/A,,Overcast,320,2013-01-29 19:49:00
2:08 PM,33.8,28.4,81,29.60,10.0,NNW,9.2,-,N/A,,Overcast,330,2013-01-29 20:08:00
2:29 PM,33.8,28.4,81,29.60,10.0,NNW,12.7,-,N/A,,Overcast,340,2013-01-29 20:29:00
2:48 PM,33.8,28.4,81,29.61,10.0,NNW,12.7,-,N/A,,Overcast,330,2013-01-29 20:48:00
3:08 PM,33.8,28.4,81,29.62,10.0,NNW,8.1,-,N/A,,Overcast,340,2013-01-29 21:08:00
3:48 PM,33.8,28.4,81,29.63,10.0,NW,9.2,-,N/A,,Mostly Cloudy,320,2013-01-29 21:48:00
4:08 PM,33.8,28.4,81,29.63,10.0,NNW,10.4,-,N/A,,Mostly Cloudy,340,2013-01-29 22:08:00
4:28 PM,33.8,28.4,81,29.63,10.0,NNW,9.2,-,N/A,,Mostly Cloudy,340,2013-01-29 22:28:00
4:48 PM,32.0,28.4,87,29.63,10.0,NNW,12.7,-,N/A,,Overcast,340,2013-01-29 22:48:00
5:09 PM,32.0,26.6,80,29.64,10.0,NNW,11.5,-,N/A,,Overcast,330,2013-01-29 23:09:00
5:28 PM,32.0,26.6,80,29.64,10.0,NNW,11.5,-,N/A,,Overcast,340,2013-01-29 23:28:00
5:48 PM,32.0,28.4,87,29.65,10.0,NNW,10.4,-,N/A,,Mostly Cloudy,330,2013-01-29 23:48:00
6:09 PM,30.2,28.4,93,29.66,10.0,NNW,12.7,-,N/A,,Mostly Cloudy,330,2013-01-30 00:09:00
6:28 PM,30.2,26.6,86,29.67,10.0,NW,9.2,-,N/A,,Mostly Cloudy,320,2013-01-30 00:28:00
6:48 PM,30.2,26.6,86,29.66,10.0,NNW,10.4,-,N/A,,Mostly Cloudy,330,2013-01-30 00:48:00
7:09 PM,30.2,26.6,86,29.62,10.0,NNW,12.7,-,N/A,,Overcast,340,2013-01-30 01:09:00
7:28 PM,30.2,26.6,86,29.66,10.0,NNW,13.8,19.6,N/A,,Overcast,340,2013-01-30 01:28:00
7:48 PM,30.2,24.8,80,29.68,10.0,North,16.1,20.7,N/A,,Overcast,350,2013-01-30 01:48:00
8:09 PM,28.4,23.0,80,29.70,10.0,NNW,17.3,21.9,N/A,,Mostly Cloudy,330,2013-01-30 02:09:00
8:28 PM,28.4,23.0,80,29.70,10.0,NNW,18.4,-,N/A,,Overcast,340,2013-01-30 02:28:00
8:48 PM,28.4,23.0,80,29.68,10.0,North,15.0,-,N/A,,Overcast,350,2013-01-30 02:48:00
9:08 PM,28.4,23.0,80,29.66,10.0,North,13.8,18.4,N/A,,Overcast,360,2013-01-30 03:08:00
9:28 PM,28.4,23.0,80,29.67,10.0,North,15.0,24.2,N/A,,Overcast,360,2013-01-30 03:28:00
9:49 PM,28.4,21.2,74,29.71,10.0,North,13.8,18.4,N/A,,Overcast,350,2013-01-30 03:49:00
10:08 PM,28.4,23.0,80,29.72,10.0,North,11.5,18.4,N/A,,Overcast,350,2013-01-30 04:08:00
10:28 PM,28.4,23.0,80,29.72,10.0,North,13.8,19.6,N/A,,Overcast,350,2013-01-30 04:28:00
10:48 PM,28.4,21.2,74,29.70,10.0,North,13.8,24.2,N/A,,Overcast,360,2013-01-30 04:48:00
11:08 PM,28.4,23.0,80,29.69,10.0,NNW,13.8,17.3,N/A,,Overcast,340,2013-01-30 05:08:00
11:28 PM,26.6,21.2,80,29.69,10.0,NNW,13.8,-,N/A,,Overcast,340,2013-01-30 05:28:00
11:48 PM,26.6,21.2,80,29.71,10.0,NNW,13.8,21.9,N/A,,Overcast,340,2013-01-30 05:48:00